Location: Austin
(30.3000°N, 97.7500°W)
Time: 04:51:15
(UTC-06:00)

COSMO-SKYMED 1 - Pass Details

Date: 05 February 2026
Orbit: 577 x 579 km, 97.9° (Epoch: 15 February)

Event Time Altitude Azimuth Distance (km) Brightness Sun altitude
Rises 06:03:16 0° 161° (SSE) 2,778 6.3 -16.7°
Reaches altitude 10° 06:05:25 10° 159° (SSE) 1,883 5.4 -16.3°
Maximum altitude 06:09:28 67° 77° (ENE) 629 2.8 -15.4°
Drops below altitude 10° 06:13:32 10° 354° (N) 1,893 4.9 -14.6°
Sets 06:15:42 0° 352° (N) 2,795 5.7 -14.1°
